DW4554 Weather Reports


time (UTC)temp
C
wind
direction
speed
KPH
gust
KPH
rain 1hr
cm
rain 24hr
cm
rain mn
cm
humidity
%
barometer
mb
20260831163404 26 215 0.0 0.0 0.00 0.03 0.03 62 1012.3
20260831162404 27 215 0.0 0.0 0.00 0.03 0.03 59 1012.2
20260831161904 27 215 0.0 0.0 0.00 0.03 0.03 58 1012.2
20260831161404 27 215 0.0 3.2 0.00 0.03 0.03 58 1012.2
20260831160904 27 215 3.2 4.8 0.00 0.03 0.03 57 1012.2
20260831160404 27 215 3.2 4.8 0.00 0.03 0.03 56 1012.2
20260831155904 27 215 3.2 8.0 0.00 0.03 0.03 57 1012.2
20260831155404 27 213 4.8 9.7 0.00 0.03 0.03 57 1012.2
20260831154904 27 209 0.0 4.8 0.00 0.03 0.03 56 1012.2
20260831154404 27 209 1.6 4.8 0.00 0.03 0.03 57 1012.2
20260831153904 27 209 0.0 4.8 0.00 0.03 0.03 56 1012.2
20260831153405 27 209 1.6 4.8 0.00 0.03 0.03 57 1012.2
20260831152904 27 209 1.6 4.8 0.00 0.03 0.03 57 1012.2
20260831152404 27 225 3.2 8.0 0.00 0.03 0.03 59 1012.2
20260831151904 27 225 4.8 8.0 0.00 0.03 0.03 59 1012.2
20260831151404 26 202 3.2 9.7 0.00 0.03 0.03 58 1012.2
20260831150404 26 209 1.6 4.8 0.00 0.03 0.03 59 1012.3
20260831145904 26 209 0.0 4.8 0.00 0.03 0.03 60 1012.3
20260831145404 26 211 0.0 4.8 0.00 0.03 0.03 60 1012.4
20260831144904 26 212 4.8 11.3 0.00 0.03 0.03 59 1012.4
20260831144404 26 228 4.8 9.7 0.03 0.03 0.03 59 1012.4
20260831143904 26 234 4.8 11.3 0.03 0.03 0.03 59 1012.4
20260831143404 26 232 4.8 9.7 0.03 0.03 0.03 60 1012.5
20260831142904 26 222 3.2 11.3 0.03 0.03 0.03 60 1012.4
20260831142404 26 200 4.8 8.0 0.03 0.03 0.03 62 1012.4
20260831141905 26 236 6.4 12.9 0.03 0.03 0.03 61 1012.5
20260831140904 26 214 4.8 9.7 0.03 0.03 0.03 60 1012.5
20260831140404 26 192 3.2 8.0 0.03 0.03 0.03 60 1012.5
20260831135904 26 187 1.6 8.0 0.03 0.03 0.03 58 1012.5
20260831135404 26 213 3.2 4.8 0.03 0.03 0.03 58 1012.5
20260831134904 26 214 4.8 9.7 0.03 0.03 0.03 59 1012.5
20260831133904 26 237 1.6 11.3 0.00 0.00 0.00 61 1012.6
20260831133405 26 269 3.2 4.8 0.00 0.00 0.00 60 1012.6
20260831132904 26 297 4.8 12.9 0.00 0.00 0.00 61 1012.7
20260831132404 25 274 3.2 9.7 0.00 0.00 0.00 61 1012.7
20260831131904 25 271 1.6 9.7 0.00 0.00 0.00 63 1012.7
20260831131404 25 258 4.8 8.0 0.00 0.00 0.00 65 1012.8
20260831130905 25 286 1.6 4.8 0.00 0.00 0.00 64 1012.8
20260831130405 25 289 8.0 11.3 0.00 0.00 0.00 61 1012.9
20260831125904 25 285 6.4 11.3 0.00 0.00 0.00 61 1013.0
20260831125404 25 269 3.2 8.0 0.00 0.00 0.00 60 1012.9
20260831124904 25 231 3.2 11.3 0.00 0.00 0.00 60 1013.0
20260831124404 25 275 4.8 12.9 0.00 0.00 0.00 60 1013.0
20260831123904 25 237 3.2 16.1 0.00 0.00 0.00 60 1013.1
20260831123404 25 241 8.0 19.3 0.00 0.00 0.00 59 1013.1
20260831122904 26 226 8.0 12.9 0.00 0.00 0.00 58 1013.1
20260831122404 26 239 12.9 19.3 0.00 0.00 0.00 58 1013.0
20260831120904 26 229 8.0 16.1 0.00 0.00 0.00 60 1013.0
20260831120404 25 244 8.0 19.3 0.00 0.00 0.00 59 1013.0
20260831115904 26 235 9.7 19.3 0.00 0.00 0.00 59 1013.0
20260831115404 26 254 8.0 16.1 0.00 0.00 0.00 59 1013.0
20260831114404 26 243 8.0 16.1 0.00 0.00 0.00 60 1012.8
20260831113904 26 222 8.0 14.5 0.00 0.00 0.00 59 1012.8
20260831113404 26 228 8.0 14.5 0.00 0.00 0.00 59 1012.9
20260831112904 26 238 9.7 19.3 0.00 0.00 0.00 58 1012.9
20260831112404 26 218 9.7 19.3 0.00 0.00 0.00 57 1012.8
20260831111904 26 208 9.7 19.3 0.00 0.00 0.00 58 1012.8
20260831111404 27 214 9.7 19.3 0.00 0.00 0.00 57 1012.8
20260831110904 27 233 14.5 24.1 0.00 0.00 0.00 58 1012.7
20260831110404 27 220 14.5 32.2 0.00 0.00 0.00 58 1012.6
20260831105904 27 222 14.5 25.7 0.00 0.00 0.00 58 1012.5
20260831105404 27 242 9.7 20.9 0.00 0.00 0.00 58 1012.4
20260831104904 26 215 9.7 19.3 0.00 0.00 0.00 60 1012.4
20260831104404 26 235 9.7 20.9 0.00 0.00 0.00 60 1012.5
20260831103404 26 227 6.4 16.1 0.00 0.00 0.00 62 1012.5
20260831102904 26 243 9.7 19.3 0.00 0.00 0.00 65 1012.6
20260831101904 25 229 4.8 12.9 0.00 0.00 0.00 65 1012.5
20260831101404 25 240 3.2 8.0 0.00 0.00 0.00 65 1012.5
20260831100404 25 242 1.6 4.8 0.00 0.00 0.00 65 1012.4
20260831095904 25 218 1.6 3.2 0.00 0.00 0.00 65 1012.4
20260831095404 25 218 1.6 4.8 0.00 0.00 0.00 65 1012.3
20260831094404 25 218 3.2 9.7 0.00 0.00 0.00 65 1012.4
20260831093904 25 215 4.8 4.8 0.00 0.00 0.00 64 1012.5
20260831093404 25 215 4.8 8.0 0.00 0.00 0.00 65 1012.4
20260831092904 25 207 1.6 4.8 0.00 0.00 0.00 63 1012.2
20260831092405 25 208 3.2 8.0 0.00 0.00 0.00 65 1012.3
20260831091904 25 213 8.0 11.3 0.00 0.00 0.00 65 1012.4
20260831090405 25 243 3.2 8.0 0.00 0.00 0.00 65 1012.5
20260831085904 25 245 3.2 8.0 0.00 0.00 0.00 66 1012.5
20260831085404 25 242 1.6 4.8 0.00 0.00 0.00 65 1012.4
20260831084904 25 253 1.6 4.8 0.00 0.00 0.00 65 1012.3
20260831084404 25 50 0.0 1.6 0.00 0.00 0.00 65 1012.3
20260831083904 25 50 0.0 1.6 0.00 0.00 0.00 64 1012.1
20260831083405 25 50 1.6 4.8 0.00 0.00 0.00 65 1012.0
20260831082904 24 50 1.6 4.8 0.00 0.00 0.00 68 1012.0
20260831082404 24 50 0.0 0.0 0.00 0.00 0.00 69 1012.0
20260831081905 24 50 0.0 3.2 0.00 0.00 0.00 66 1012.0
20260831081404 23 50 1.6 4.8 0.00 0.00 0.00 67 1012.0
20260831080904 23 49 1.6 4.8 0.00 0.00 0.00 67 1012.0
20260831080404 23 49 1.6 3.2 0.00 0.00 0.00 69 1012.0
20260831075904 23 53 0.0 3.2 0.00 0.00 0.00 71 1012.0
20260831075404 23 63 1.6 3.2 0.00 0.00 0.00 71 1012.1
20260831074904 22 63 0.0 3.2 0.00 0.00 0.00 73 1012.1
20260831074404 22 63 0.0 3.2 0.00 0.00 0.00 76 1012.1
20260831073904 22 63 0.0 1.6 0.00 0.00 0.00 75 1012.1
20260831073404 22 63 0.0 0.0 0.00 0.00 0.00 75 1012.2
20260831072904 22 63 0.0 0.0 0.00 0.00 0.00 72 1012.1
20260831072404 22 63 0.0 3.2 0.00 0.00 0.00 72 1012.1
20260831071904 21 63 0.0 3.2 0.00 0.00 0.00 74 1012.1
20260831071404 21 63 0.0 1.6 0.00 0.00 0.00 74 1012.0
20260831070404 21 59 0.0 3.2 0.00 0.00 0.00 77 1012.1
20260831065405 20 47 0.0 4.8 0.00 0.00 0.00 78 1012.2
20260831064904 19 63 1.6 8.0 0.00 0.00 0.00 82 1012.2
20260831064404 19 43 3.2 4.8 0.00 0.00 0.00 85 1012.2
20260831063904 18 54 3.2 4.8 0.00 0.00 0.00 85 1012.3
20260831063404 18 54 1.6 4.8 0.00 0.00 0.00 85 1012.4
20260831062904 18 54 0.0 1.6 0.00 0.00 0.00 86 1012.5
20260831062405 18 54 0.0 4.8 0.00 0.00 0.00 86 1012.5
20260831061904 18 54 1.6 4.8 0.00 0.00 0.00 87 1012.5
20260831061405 17 54 3.2 4.8 0.00 0.00 0.00 87 1012.5
20260831060904 17 54 0.0 3.2 0.00 0.00 0.00 87 1012.6
20260831060404 17 54 0.0 0.0 0.00 0.00 0.00 87 1012.6
20260831055904 17 54 0.0 0.0 0.00 0.00 0.00 88 1012.7
20260831055404 17 54 0.0 0.0 0.00 0.00 0.00 88 1012.7
20260831054904 17 54 0.0 0.0 0.00 0.00 0.00 89 1012.6
20260831053905 17 54 0.0 0.0 0.00 0.00 0.00 89 1012.5
20260831053404 17 54 0.0 0.0 0.00 0.00 0.00 89 1012.5
20260831052904 17 54 0.0 0.0 0.00 0.00 0.00 88 1012.5
20260831052404 16 54 0.0 0.0 0.00 0.00 0.00 88 1012.5
20260831051904 16 54 0.0 0.0 0.00 0.00 0.00 89 1012.5
20260831051405 16 54 0.0 0.0 0.00 0.00 0.00 88 1012.5
20260831050904 16 54 0.0 0.0 0.00 0.00 0.00 88 1012.5
20260831050404 16 54 0.0 0.0 0.00 0.00 0.00 88 1012.5
20260831045904 16 54 0.0 0.0 0.00 0.00 0.00 87 1012.5
20260831045404 16 54 0.0 0.0 0.00 0.00 0.00 87 1012.5
20260831044404 16 54 0.0 0.0 0.00 0.00 0.00 87 1012.4
20260831043904 16 54 0.0 0.0 0.00 0.00 0.00 87 1012.4
20260831043404 16 54 0.0 0.0 0.00 0.00 0.00 87 1012.5
20260831042905 16 54 0.0 0.0 0.00 0.00 0.00 87 1012.5
20260831042404 16 54 0.0 0.0 0.00 0.00 0.00 87 1012.3
20260831041904 16 54 0.0 0.0 0.00 0.00 0.00 87 1012.3
20260831040905 16 54 3.2 4.8 0.00 0.00 0.00 87 1012.3
20260831040405 16 54 3.2 8.0 0.00 0.00 0.00 87 1012.3
20260831035904 16 43 3.2 8.0 0.00 0.00 0.00 87 1012.3
20260831035404 16 42 1.6 3.2 0.00 0.00 0.00 87 1012.4
20260831034904 16 42 0.0 0.0 0.00 0.00 0.00 87 1012.4
20260831033404 16 42 0.0 1.6 0.00 0.00 0.00 87 1012.5
20260831032904 16 42 1.6 3.2 0.00 0.00 0.00 87 1012.4
20260831032404 16 42 0.0 3.2 0.00 0.00 0.00 87 1012.5
20260831031904 16 42 0.0 0.0 0.00 0.00 0.00 87 1012.5
20260831031404 16 42 0.0 0.0 0.00 0.00 0.00 87 1012.5
20260831030905 16 42 0.0 3.2 0.00 0.00 0.00 87 1012.5
20260831030404 16 42 1.6 4.8 0.00 0.00 0.00 87 1012.4
20260831025904 16 42 0.0 0.0 0.00 0.00 0.00 87 1012.6
20260831025405 16 42 0.0 1.6 0.00 0.00 0.00 86 1012.6
20260831024904 16 42 0.0 1.6 0.00 0.00 0.00 86 1012.7
20260831023904 16 42 0.0 0.0 0.00 0.00 0.00 86 1012.7
20260831023404 16 42 0.0 3.2 0.00 0.00 0.00 86 1012.7
20260831022904 16 42 1.6 4.8 0.00 0.00 0.00 86 1012.7
20260831022404 16 42 1.6 3.2 0.00 0.00 0.00 86 1012.7
20260831021904 16 42 1.6 4.8 0.00 0.00 0.00 86 1012.7
20260831021404 16 42 3.2 4.8 0.00 0.00 0.00 86 1012.7
20260831020404 16 38 3.2 4.8 0.00 0.00 0.00 86 1012.8
20260831015904 16 38 1.6 4.8 0.00 0.00 0.00 86 1012.8
20260831015404 16 38 1.6 4.8 0.00 0.00 0.00 86 1012.8
20260831014905 16 38 1.6 4.8 0.00 0.00 0.00 86 1012.8
20260831014404 16 38 3.2 4.8 0.00 0.00 0.00 86 1012.8
20260831013904 16 34 1.6 4.8 0.00 0.00 0.00 86 1012.8
20260831013404 16 34 0.0 1.6 0.00 0.00 0.00 86 1012.9
20260831012905 16 34 0.0 0.0 0.00 0.00 0.00 86 1013.1
20260831012404 16 34 0.0 0.0 0.00 0.00 0.00 86 1013.1
20260831011904 16 34 0.0 4.8 0.00 0.00 0.00 86 1013.1
20260831011404 16 34 1.6 3.2 0.00 0.00 0.00 86 1013.0
20260831010904 16 34 0.0 1.6 0.00 0.00 0.00 85 1013.0
20260831010404 16 34 0.0 0.0 0.00 0.00 0.00 85 1013.2
20260831005904 16 34 0.0 0.0 0.00 0.00 0.00 85 1013.2
20260831004404 16 34 0.0 0.0 0.00 0.03 0.00 84 1013.3
20260831003904 17 34 0.0 0.0 0.00 0.03 0.00 84 1013.3
20260831003404 17 34 0.0 4.8 0.00 0.03 0.00 84 1013.4
20260831002904 17 34 1.6 3.2 0.00 0.03 0.00 84 1013.4
20260831002404 17 34 1.6 4.8 0.00 0.03 0.00 84 1013.4
20260831001904 17 34 3.2 4.8 0.00 0.03 0.00 84 1013.4
20260831001405 17 34 3.2 4.8 0.00 0.03 0.00 84 1013.3
20260831000404 17 34 1.6 3.2 0.00 0.03 0.00 83 1013.5
20260830235904 17 34 0.0 0.0 0.00 0.03 0.00 83 1013.5
20260830235404 17 34 0.0 0.0 0.00 0.03 0.00 83 1013.5
20260830234904 17 34 0.0 1.6 0.00 0.03 0.00 83 1013.5
20260830234405 17 34 0.0 0.0 0.00 0.03 0.00 83 1013.5
20260830233904 17 34 0.0 0.0 0.00 0.03 0.00 83 1013.5
20260830233405 17 34 0.0 0.0 0.00 0.03 0.00 83 1013.5
20260830232904 17 34 0.0 0.0 0.00 0.03 0.00 83 1013.5
20260830232405 17 34 1.6 22.5 0.00 0.03 0.00 83 1013.5
20260830231904 17 34 1.6 3.2 0.00 0.03 0.00 83 1013.5
20260830231404 17 34 1.6 3.2 0.00 0.03 0.00 83 1013.5
20260830230905 17 34 0.0 3.2 0.00 0.03 0.00 83 1013.5
20260830225904 18 34 1.6 3.2 0.00 0.03 0.00 82 1013.5
20260830225404 18 34 1.6 3.2 0.00 0.03 0.00 82 1013.5
20260830223904 18 34 0.0 1.6 0.00 0.03 0.00 81 1013.6
20260830222904 18 34 0.0 0.0 0.00 0.03 0.00 80 1013.6
20260830222404 18 34 0.0 0.0 0.00 0.03 0.00 80 1013.6
20260830221904 18 34 0.0 0.0 0.00 0.03 0.00 79 1013.6
20260830221404 18 34 0.0 0.0 0.00 0.03 0.00 79 1013.5
20260830220904 18 34 0.0 1.6 0.00 0.03 0.00 79 1013.6
20260830215905 18 34 1.6 3.2 0.00 0.03 0.03 78 1013.5
20260830215404 18 34 0.0 0.0 0.00 0.03 0.03 78 1013.5
20260830214906 18 34 1.6 3.2 0.00 0.03 0.03 78 1013.3
20260830214404 18 34 0.0 0.0 0.00 0.03 0.03 78 1013.3
20260830213405 19 34 1.6 3.2 0.00 0.03 0.03 78 1013.3
20260830212404 19 34 0.0 3.2 0.00 0.03 0.03 77 1013.3
20260830211904 19 34 0.0 3.2 0.00 0.03 0.03 76 1013.4
20260830211404 19 34 1.6 3.2 0.00 0.03 0.03 76 1013.3
20260830210904 19 34 1.6 4.8 0.00 0.03 0.03 76 1013.2
20260830210405 19 34 3.2 4.8 0.00 0.03 0.03 76 1013.2
20260830205904 19 34 3.2 4.8 0.00 0.03 0.03 75 1013.2
20260830205405 20 51 3.2 4.8 0.00 0.03 0.03 75 1013.2
20260830204904 20 60 4.8 4.8 0.00 0.03 0.03 76 1013.1
20260830204404 20 61 1.6 4.8 0.00 0.03 0.03 75 1013.2
20260830203904 20 61 1.6 4.8 0.00 0.03 0.03 74 1013.2
20260830203404 20 61 0.0 3.2 0.00 0.03 0.03 74 1013.1
20260830202904 20 61 0.0 0.0 0.00 0.03 0.03 73 1013.2
20260830202405 20 61 0.0 0.0 0.00 0.03 0.03 73 1013.2
20260830201904 20 61 0.0 0.0 0.00 0.03 0.03 73 1013.2
20260830200904 20 61 1.6 4.8 0.00 0.03 0.03 71 1013.1
20260830200404 20 61 1.6 4.8 0.00 0.03 0.03 70 1013.1
20260830195404 20 60 3.2 4.8 0.00 0.03 0.03 69 1013.0
20260830194905 21 63 3.2 4.8 0.00 0.03 0.03 70 1013.0
20260830194405 21 69 3.2 4.8 0.00 0.03 0.03 69 1013.0
20260830193905 21 69 1.6 4.8 0.00 0.03 0.03 69 1013.0
20260830193404 21 69 1.6 3.2 0.00 0.03 0.03 69 1013.0
20260830192404 21 69 3.2 4.8 0.00 0.03 0.03 69 1012.9
20260830191904 21 69 1.6 4.8 0.00 0.03 0.03 69 1013.0
20260830191404 21 69 1.6 4.8 0.00 0.03 0.03 69 1012.9
20260830190404 21 69 3.2 4.8 0.00 0.03 0.03 68 1013.0
20260830185904 22 69 1.6 4.8 0.00 0.03 0.03 67 1013.0
20260830185404 22 69 3.2 4.8 0.00 0.03 0.03 67 1012.9
20260830184404 22 69 1.6 4.8 0.00 0.03 0.03 65 1012.8
20260830183905 22 69 0.0 4.8 0.00 0.03 0.03 64 1012.8
20260830183404 22 73 3.2 4.8 0.00 0.03 0.03 63 1012.8
20260830182404 23 125 1.6 3.2 0.00 0.03 0.03 63 1012.7
20260830181905 23 125 0.0 3.2 0.00 0.03 0.03 62 1012.6
20260830181404 23 125 1.6 3.2 0.00 0.03 0.03 61 1012.6
20260830180904 23 125 0.0 1.6 0.00 0.03 0.03 61 1012.5
20260830175405 25 125 0.0 1.6 0.00 0.03 0.03 59 1012.4
20260830174904 25 125 0.0 1.6 0.00 0.03 0.03 58 1012.4
20260830174405 25 125 0.0 0.0 0.00 0.03 0.03 57 1012.3
20260830173904 26 125 0.0 1.6 0.00 0.03 0.03 55 1012.3
20260830173405 26 125 0.0 3.2 0.00 0.03 0.03 54 1012.3
20260830171904 27 125 0.0 3.2 0.00 0.03 0.03 52 1012.2
20260830171404 27 125 0.0 1.6 0.00 0.03 0.03 51 1012.2
20260830170904 27 125 1.6 4.8 0.00 0.03 0.03 49 1012.1
20260830170404 27 125 0.0 1.6 0.00 0.03 0.03 49 1012.1
20260830165905 27 125 0.0 1.6 0.00 0.03 0.03 49 1012.1
20260830165404 28 125 0.0 3.2 0.00 0.03 0.03 48 1012.2
20260830164405 28 125 0.0 1.6 0.00 0.03 0.03 47 1012.2
20260830163904 28 125 1.6 4.8 0.00 0.03 0.03 46 1012.2